Time,TemperatureF,DewpointF,PressureIn,WindDirection,WindDirectionDegrees,WindSpeedMPH,WindSpeedGustMPH,Humidity,HourlyPrecipIn,Conditions,Clouds,dailyrainin,SoftwareType,DateUTC
2013-07-29 00:05:00,63.7,49.0,29.79,South,185,8.0,15.0,59,0.00,,,0.00,weatherlink.com 1.10,2013-07-29 07:05:00,
2013-07-29 00:20:00,63.3,49.0,29.80,SW,217,14.0,15.0,59,0.00,,,0.00,weatherlink.com 1.10,2013-07-29 07:20:00,
2013-07-29 00:35:00,62.6,48.0,29.80,SSW,200,4.0,13.0,60,0.00,,,0.00,weatherlink.com 1.10,2013-07-29 07:35:00,
2013-07-29 00:50:00,61.9,48.0,29.80,SSW,200,11.0,14.0,61,0.00,,,0.00,weatherlink.com 1.10,2013-07-29 07:50:00,
2013-07-29 01:05:00,62.0,48.0,29.80,SW,225,12.0,15.0,60,0.00,,,0.00,weatherlink.com 1.10,2013-07-29 08:05:00,
2013-07-29 01:20:00,61.6,48.0,29.80,South,183,9.0,13.0,61,0.00,,,0.00,weatherlink.com 1.10,2013-07-29 08:20:00,
2013-07-29 01:35:00,61.4,48.0,29.79,South,184,8.0,13.0,61,0.00,,,0.00,weatherlink.com 1.10,2013-07-29 08:35:00,
2013-07-29 01:50:00,61.3,48.0,29.79,SW,217,8.0,14.0,61,0.00,,,0.00,weatherlink.com 1.10,2013-07-29 08:50:00,
2013-07-29 02:05:00,61.3,48.0,29.79,SSW,195,5.0,13.0,61,0.00,,,0.00,weatherlink.com 1.10,2013-07-29 09:05:00,
2013-07-29 02:20:00,61.1,48.0,29.80,SSW,204,10.0,11.0,62,0.00,,,0.00,weatherlink.com 1.10,2013-07-29 09:20:00,
2013-07-29 02:35:00,60.9,48.0,29.79,SSW,210,10.0,13.0,62,0.00,,,0.00,weatherlink.com 1.10,2013-07-29 09:35:00,
2013-07-29 02:50:00,60.9,47.0,29.79,South,179,8.0,11.0,60,0.00,,,0.00,weatherlink.com 1.10,2013-07-29 09:50:00,
2013-07-29 03:20:00,61.2,46.0,29.79,SSE,168,10.0,13.0,57,0.00,,,0.00,weatherlink.com 1.10,2013-07-29 10:20:00,
2013-07-29 03:35:00,61.2,45.0,29.80,SSE,168,6.0,11.0,56,0.00,,,0.00,weatherlink.com 1.10,2013-07-29 10:35:00,
2013-07-29 03:50:00,61.2,44.0,29.80,SSW,204,8.0,12.0,53,0.00,,,0.00,weatherlink.com 1.10,2013-07-29 10:50:00,
2013-07-29 04:05:00,61.0,43.0,29.80,South,177,6.0,12.0,52,0.00,,,0.00,weatherlink.com 1.10,2013-07-29 11:05:00,
2013-07-29 04:20:00,61.3,42.0,29.80,South,181,8.0,13.0,49,0.00,,,0.00,weatherlink.com 1.10,2013-07-29 11:20:00,
2013-07-29 04:50:00,61.2,41.0,29.81,SSE,165,7.0,10.0,48,0.00,,,0.00,weatherlink.com 1.10,2013-07-29 11:50:00,
2013-07-29 05:05:00,61.1,40.0,29.81,South,190,8.0,11.0,46,0.00,,,0.00,weatherlink.com 1.10,2013-07-29 12:05:00,
2013-07-29 05:20:00,61.3,39.0,29.82,SSW,194,7.0,12.0,44,0.00,,,0.00,weatherlink.com 1.10,2013-07-29 12:20:00,
2013-07-29 05:35:00,61.4,38.0,29.82,SSW,201,7.0,12.0,42,0.00,,,0.00,weatherlink.com 1.10,2013-07-29 12:35:00,
2013-07-29 05:51:00,61.5,37.0,29.83,SSW,193,11.0,11.0,41,0.00,,,0.00,weatherlink.com 1.10,2013-07-29 12:51:00,
2013-07-29 06:06:00,62.1,37.0,29.83,South,173,5.0,14.0,39,0.00,,,0.00,weatherlink.com 1.10,2013-07-29 13:06:00,
2013-07-29 06:21:00,62.3,36.0,29.83,SSE,161,6.0,12.0,37,0.00,,,0.00,weatherlink.com 1.10,2013-07-29 13:21:00,
2013-07-29 06:36:00,62.6,34.0,29.84,South,175,8.0,12.0,35,0.00,,,0.00,weatherlink.com 1.10,2013-07-29 13:36:00,
2013-07-29 07:06:00,64.9,34.0,29.84,SSW,201,6.0,13.0,32,0.00,,,0.00,weatherlink.com 1.10,2013-07-29 14:06:00,
2013-07-29 07:36:00,68.2,42.0,29.85,SSE,167,7.0,18.0,39,0.00,,,0.00,weatherlink.com 1.10,2013-07-29 14:36:00,
2013-07-29 07:51:00,69.0,42.0,29.85,SSW,193,12.0,17.0,38,0.00,,,0.00,weatherlink.com 1.10,2013-07-29 14:51:00,
2013-07-29 08:21:00,70.4,43.0,29.86,South,187,7.0,23.0,38,0.00,,,0.00,weatherlink.com 1.10,2013-07-29 15:21:00,
2013-07-29 09:36:00,74.2,32.0,29.87,SSW,209,10.0,22.0,21,0.00,,,0.00,weatherlink.com 1.10,2013-07-29 16:36:00,
2013-07-29 10:06:00,75.8,28.0,29.88,South,174,8.0,21.0,17,0.00,,,0.00,weatherlink.com 1.10,2013-07-29 17:06:00,
2013-07-29 10:36:00,76.9,26.0,29.89,South,176,13.0,22.0,15,0.00,,,0.00,weatherlink.com 1.10,2013-07-29 17:36:00,
2013-07-29 10:52:00,77.7,26.0,29.89,SE,142,9.0,18.0,15,0.00,,,0.00,weatherlink.com 1.10,2013-07-29 17:52:00,
2013-07-29 11:07:00,78.4,27.0,29.89,South,184,18.0,22.0,15,0.00,,,0.00,weatherlink.com 1.10,2013-07-29 18:07:00,
2013-07-29 11:22:00,78.9,26.0,29.89,SSE,153,7.0,20.0,14,0.00,,,0.00,weatherlink.com 1.10,2013-07-29 18:22:00,
2013-07-29 11:37:00,79.6,25.0,29.90,SSW,205,8.0,21.0,13,0.00,,,0.00,weatherlink.com 1.10,2013-07-29 18:37:00,
2013-07-29 11:52:00,79.4,22.0,29.90,SSW,207,11.0,23.0,12,0.00,,,0.00,weatherlink.com 1.10,2013-07-29 18:52:00,
2013-07-29 12:07:00,80.4,29.0,29.90,WSW,238,9.0,16.0,15,0.00,,,0.00,weatherlink.com 1.10,2013-07-29 19:07:00,
2013-07-29 12:22:00,80.6,27.0,29.90,WSW,255,6.0,19.0,14,0.00,,,0.00,weatherlink.com 1.10,2013-07-29 19:22:00,
2013-07-29 12:37:00,81.5,31.0,29.91,South,171,11.0,18.0,16,0.00,,,0.00,weatherlink.com 1.10,2013-07-29 19:37:00,
2013-07-29 12:53:00,82.1,33.0,29.91,SSE,158,4.0,16.0,17,0.00,,,0.00,weatherlink.com 1.10,2013-07-29 19:53:00,
2013-07-29 13:07:00,82.8,34.0,29.90,West,271,5.0,13.0,17,0.00,,,0.00,weatherlink.com 1.10,2013-07-29 20:07:00,
2013-07-29 13:22:00,83.0,37.0,29.90,SE,146,4.0,16.0,19,0.00,,,0.00,weatherlink.com 1.10,2013-07-29 20:22:00,
2013-07-29 13:37:00,82.7,35.0,29.90,South,186,5.0,20.0,18,0.00,,,0.00,weatherlink.com 1.10,2013-07-29 20:37:00,
2013-07-29 13:52:00,82.7,38.0,29.90,SSE,162,4.0,18.0,20,0.00,,,0.00,weatherlink.com 1.10,2013-07-29 20:52:00,
2013-07-29 14:07:00,83.0,37.0,29.89,South,173,9.0,21.0,19,0.00,,,0.00,weatherlink.com 1.10,2013-07-29 21:07:00,
2013-07-29 14:52:00,84.3,39.0,29.89,WSW,242,14.0,19.0,20,0.00,,,0.00,weatherlink.com 1.10,2013-07-29 21:52:00,
2013-07-29 15:07:00,84.2,41.0,29.89,SW,231,9.0,15.0,22,0.00,,,0.00,weatherlink.com 1.10,2013-07-29 22:07:00,
2013-07-29 15:22:00,83.6,42.0,29.89,SSW,193,7.0,16.0,23,0.00,,,0.00,weatherlink.com 1.10,2013-07-29 22:22:00,
2013-07-29 15:37:00,83.7,41.0,29.88,South,181,6.0,16.0,22,0.00,,,0.00,weatherlink.com 1.10,2013-07-29 22:37:00,
2013-07-29 16:07:00,83.6,41.0,29.88,SSE,166,12.0,16.0,22,0.00,,,0.00,weatherlink.com 1.10,2013-07-29 23:07:00,
2013-07-29 16:22:00,83.0,40.0,29.88,SE,146,2.0,18.0,22,0.00,,,0.00,weatherlink.com 1.10,2013-07-29 23:22:00,
2013-07-29 16:37:00,82.8,38.0,29.88,SSW,200,17.0,17.0,20,0.00,,,0.00,weatherlink.com 1.10,2013-07-29 23:37:00,
2013-07-29 16:52:00,82.1,38.0,29.88,SSW,198,7.0,20.0,21,0.00,,,0.00,weatherlink.com 1.10,2013-07-29 23:52:00,
2013-07-29 17:22:00,81.7,38.0,29.88,SSW,203,6.0,19.0,21,0.00,,,0.00,weatherlink.com 1.10,2013-07-30 00:22:00,
2013-07-29 17:37:00,81.0,38.0,29.88,SSE,159,6.0,19.0,21,0.00,,,0.00,weatherlink.com 1.10,2013-07-30 00:37:00,
2013-07-29 18:07:00,79.9,39.0,29.88,NE,54,7.0,19.0,23,0.00,,,0.00,weatherlink.com 1.10,2013-07-30 01:07:00,
2013-07-29 18:22:00,79.2,39.0,29.88,SE,131,6.0,23.0,24,0.00,,,0.00,weatherlink.com 1.10,2013-07-30 01:22:00,
2013-07-29 18:37:00,78.2,40.0,29.88,SW,231,17.0,17.0,25,0.00,,,0.00,weatherlink.com 1.10,2013-07-30 01:37:00,
2013-07-29 18:52:00,77.2,39.0,29.88,WNW,291,4.0,19.0,25,0.00,,,0.00,weatherlink.com 1.10,2013-07-30 01:52:00,
2013-07-29 19:07:00,76.5,41.0,29.88,SW,219,6.0,18.0,28,0.00,,,0.00,weatherlink.com 1.10,2013-07-30 02:07:00,
2013-07-29 19:37:00,75.3,40.0,29.88,SSE,165,5.0,20.0,28,0.00,,,0.00,weatherlink.com 1.10,2013-07-30 02:37:00,
2013-07-29 19:52:00,74.4,42.0,29.89,South,177,10.0,17.0,31,0.00,,,0.00,weatherlink.com 1.10,2013-07-30 02:52:00,
2013-07-29 20:22:00,72.9,42.0,29.89,SE,125,8.0,16.0,33,0.00,,,0.00,weatherlink.com 1.10,2013-07-30 03:22:00,
2013-07-29 20:52:00,71.3,46.0,29.90,SW,214,10.0,12.0,40,0.00,,,0.00,weatherlink.com 1.10,2013-07-30 03:52:00,
2013-07-29 21:07:00,70.8,46.0,29.91,SE,143,12.0,17.0,41,0.00,,,0.00,weatherlink.com 1.10,2013-07-30 04:07:00,
2013-07-29 21:22:00,70.8,45.0,29.91,SSE,149,8.0,18.0,39,0.00,,,0.00,weatherlink.com 1.10,2013-07-30 04:22:00,
2013-07-29 21:37:00,70.1,46.0,29.91,SW,222,15.0,20.0,43,0.00,,,0.00,weatherlink.com 1.10,2013-07-30 04:37:00,
2013-07-29 21:52:00,69.4,46.0,29.91,South,184,10.0,15.0,44,0.00,,,0.00,weatherlink.com 1.10,2013-07-30 04:52:00,
2013-07-29 22:08:00,68.8,46.0,29.92,South,170,11.0,15.0,45,0.00,,,0.00,weatherlink.com 1.10,2013-07-30 05:08:00,
2013-07-29 22:22:00,69.4,46.0,29.92,SSW,201,11.0,16.0,43,0.00,,,0.00,weatherlink.com 1.10,2013-07-30 05:22:00,
2013-07-29 22:37:00,68.8,46.0,29.92,South,174,6.0,14.0,45,0.00,,,0.00,weatherlink.com 1.10,2013-07-30 05:37:00,
2013-07-29 22:52:00,67.6,47.0,29.93,NW,309,1.0,7.0,47,0.00,,,0.00,weatherlink.com 1.10,2013-07-30 05:52:00,
2013-07-29 23:07:00,66.9,47.0,29.93,SSW,207,4.0,6.0,49,0.00,,,0.00,weatherlink.com 1.10,2013-07-30 06:07:00,
2013-07-29 23:23:00,66.7,47.0,29.93,SE,141,3.0,7.0,49,0.00,,,0.00,weatherlink.com 1.10,2013-07-30 06:23:00,
2013-07-29 23:38:00,66.0,47.0,29.93,NW,306,4.0,10.0,50,0.00,,,0.00,weatherlink.com 1.10,2013-07-30 06:38:00,
2013-07-29 23:53:00,65.7,47.0,29.93,East,93,2.0,6.0,51,0.00,,,0.00,weatherlink.com 1.10,2013-07-30 06:53:00,